When you browse on this site, cookies collect data to enhance your experience and personalize the content and advertising you see.
Visit our Privacy Policy to learn more. By continuing to use the site, you agree to this use of cookies and data.
  • In Hungary
  • List of Countries
  • For 7 days
  • Water Temperature
  • Weather Map
  • News
  • Weather Widgets
  • user-avatar
    Login

    Hourly Weather Kletki

    Today, 19 January, Sunday

    Time Temperature Precipitation Wind Pressure Humidity
    00:00 -5°C° 0 mm 4 mps 755 mmHg 94%
    01:00 -5°C° 0 mm 4 mps 755 mmHg 93%
    02:00 -4°C° 0 mm 4 mps 755 mmHg 93%
    03:00 -5°C° 0 mm 4 mps 755 mmHg 96%
    04:00 -5°C° 0 mm 4 mps 755 mmHg 95%
    05:00 -5°C° 0 mm 4 mps 755 mmHg 94%
    06:00 -7°C° 0 mm 4 mps 755 mmHg 93%
    07:00 -5°C° 0 mm 4 mps 755 mmHg 93%
    08:00 -5°C° 0 mm 3 mps 755 mmHg 94%
    09:00 -5°C° 0 mm 3 mps 756 mmHg 95%
    10:00 -4°C° 0 mm 3 mps 756 mmHg 94%
    11:00 -4°C° 0 mm 3 mps 756 mmHg 92%
    12:00 -2°C° 0 mm 3 mps 756 mmHg 90%
    13:00 -2°C° 0 mm 3 mps 756 mmHg 90%
    14:00 -2°C° 0 mm 3 mps 756 mmHg 89%
    15:00 -2°C° 0 mm 2 mps 757 mmHg 89%
    16:00 -2°C° 0 mm 2 mps 757 mmHg 90%
    17:00 -3°C° 0 mm 2 mps 757 mmHg 92%
    18:00 -3°C° 0 mm 2 mps 757 mmHg 94%
    19:00 -4°C° 0 mm 3 mps 757 mmHg 93%
    20:00 -4°C° 0 mm 3 mps 757 mmHg 93%
    21:00 -4°C° 0 mm 3 mps 757 mmHg 92%
    22:00 -3°C° 0 mm 4 mps 757 mmHg 92%
    23:00 -3°C° 0 mm 4 mps 757 mmHg 92%

    Tomorrow, 20 January, Monday

    Time Temperature Precipitation Wind Pressure Humidity
    00:00 -3°C° 0 mm 4 mps 757 mmHg 92%
    01:00 -3°C° 0 mm 4 mps 757 mmHg 92%
    02:00 -3°C° 0 mm 4 mps 757 mmHg 92%
    03:00 -3°C° 0 mm 4 mps 757 mmHg 92%
    04:00 -2°C° 0 mm 4 mps 757 mmHg 91%
    05:00 -2°C° 0 mm 4 mps 756 mmHg 91%
    06:00 -2°C° 0 mm 4 mps 756 mmHg 90%
    07:00 -2°C° 0 mm 4 mps 756 mmHg 90%
    08:00 -2°C° 0 mm 4 mps 756 mmHg 90%
    09:00 -2°C° 0 mm 5 mps 756 mmHg 90%
    10:00 -2°C° 0 mm 5 mps 756 mmHg 90%
    11:00 -2°C° 0 mm 5 mps 756 mmHg 90%
    12:00 -2°C° 0 mm 5 mps 755 mmHg 90%
    13:00 -1°C° 0 mm 5 mps 755 mmHg 90%
    14:00 -1°C° 0 mm 5 mps 755 mmHg 89%
    15:00 -2°C° 0 mm 6 mps 755 mmHg 88%
    16:00 -1°C° 0 mm 5 mps 755 mmHg 89%
    17:00 -2°C° 0 mm 5 mps 755 mmHg 90%
    18:00 -2°C° 0 mm 5 mps 754 mmHg 90%
    19:00 -2°C° 0 mm 5 mps 754 mmHg 91%
    20:00 -2°C° 0 mm 5 mps 754 mmHg 93%
    21:00 -2°C° 0 mm 5 mps 754 mmHg 94%
    22:00 -2°C° 0 mm 5 mps 753 mmHg 95%
    23:00 -2°C° 0 mm 5 mps 753 mmHg 95%

    Day after tomorrow, 21 January, Tuesday

    Time Temperature Precipitation Wind Pressure Humidity
    00:00 -2°C° 0 mm 5 mps 753 mmHg 96%
    01:00 -3°C° 0 mm 6 mps 752 mmHg 95%
    02:00 -3°C° 0 mm 6 mps 752 mmHg 93%
    03:00 -3°C° 0 mm 6 mps 751 mmHg 91%
    04:00 -3°C° 0 mm 6 mps 751 mmHg 91%
    05:00 -3°C° 0 mm 6 mps 750 mmHg 90%
    06:00 -4°C° 0 mm 6 mps 749 mmHg 89%
    07:00 -4°C° 0 mm 6 mps 749 mmHg 88%
    08:00 -4°C° 0 mm 6 mps 748 mmHg 88%
    09:00 -4°C° 0 mm 6 mps 747 mmHg 87%
    10:00 -4°C° 0.1 mm 6 mps 747 mmHg 89%
    11:00 -4°C° 0.1 mm 7 mps 746 mmHg 90%
    12:00 -3°C° 0.1 mm 7 mps 745 mmHg 91%
    13:00 -3°C° 0.3 mm 7 mps 745 mmHg 91%
    14:00 -2°C° 0.3 mm 7 mps 745 mmHg 91%
    15:00 -2°C° 0.3 mm 7 mps 744 mmHg 91%
    16:00 -1°C° 0 mm 7 mps 744 mmHg 92%
    17:00 -1°C° 0 mm 6 mps 743 mmHg 93%
    18:00 -1°C° 0 mm 6 mps 742 mmHg 94%
    19:00 -1°C° 0 mm 6 mps 742 mmHg 94%
    20:00 -1°C° 0 mm 6 mps 741 mmHg 94%
    21:00 -1°C° 0 mm 6 mps 741 mmHg 95%
    22:00 -1°C° 0.5 mm 6 mps 740 mmHg 95%
    23:00 -1°C° 0.5 mm 6 mps 739 mmHg 95%

    22 January, Wednesday

    Time Temperature Precipitation Wind Pressure Humidity
    00:00 -1°C° 0.5 mm 6 mps 738 mmHg 95%
    01:00 0°C° 0.4 mm 7 mps 737 mmHg 94%
    02:00 0°C° 0.4 mm 7 mps 737 mmHg 94%
    03:00 +1°C° 0.4 mm 8 mps 736 mmHg 93%
    04:00 0°C° 0.2 mm 8 mps 736 mmHg 91%
    05:00 0°C° 0.2 mm 8 mps 736 mmHg 89%
    06:00 -1°C° 0.2 mm 8 mps 737 mmHg 87%
    07:00 -1°C° 0 mm 7 mps 737 mmHg 85%
    08:00 -2°C° 0 mm 6 mps 737 mmHg 83%
    09:00 -2°C° 0 mm 5 mps 738 mmHg 81%
    10:00 -3°C° 0 mm 6 mps 737 mmHg 80%
    11:00 -3°C° 0 mm 6 mps 737 mmHg 78%
    12:00 -3°C° 0 mm 7 mps 737 mmHg 77%
    13:00 -3°C° 0 mm 6 mps 737 mmHg 78%
    14:00 -2°C° 0 mm 5 mps 737 mmHg 78%
    15:00 -2°C° 0 mm 5 mps 736 mmHg 79%
    16:00 -2°C° 0.1 mm 4 mps 736 mmHg 81%
    17:00 -3°C° 0.1 mm 4 mps 736 mmHg 82%
    18:00 -2°C° 0.1 mm 3 mps 735 mmHg 84%
    19:00 -3°C° 0 mm 4 mps 735 mmHg 85%
    20:00 -3°C° 0 mm 4 mps 735 mmHg 85%
    21:00 -3°C° 0 mm 4 mps 735 mmHg 86%
    22:00 -3°C° 0.1 mm 4 mps 735 mmHg 87%
    23:00 -3°C° 0.1 mm 4 mps 736 mmHg 88%

    23 January, Thursday

    Time Temperature Precipitation Wind Pressure Humidity
    00:00 -5°C° 0.1 mm 5 mps 736 mmHg 89%
    01:00 -5°C° 0 mm 5 mps 736 mmHg 88%
    02:00 -5°C° 0 mm 5 mps 736 mmHg 88%
    03:00 -5°C° 0 mm 5 mps 736 mmHg 87%
    04:00 -6°C° 0 mm 5 mps 737 mmHg 86%
    05:00 -6°C° 0 mm 5 mps 737 mmHg 85%
    06:00 -6°C° 0 mm 5 mps 737 mmHg 84%
    07:00 -6°C° 0.1 mm 6 mps 738 mmHg 83%
    08:00 -6°C° 0.1 mm 6 mps 738 mmHg 83%
    09:00 -6°C° 0.1 mm 6 mps 739 mmHg 82%
    10:00 -6°C° 0.2 mm 6 mps 739 mmHg 78%
    11:00 -8°C° 0.2 mm 7 mps 740 mmHg 73%
    12:00 -8°C° 0.2 mm 7 mps 741 mmHg 69%
    13:00 -9°C° 0 mm 7 mps 741 mmHg 66%
    14:00 -9°C° 0 mm 7 mps 742 mmHg 64%
    15:00 -9°C° 0 mm 7 mps 742 mmHg 61%
    16:00 -9°C° 0 mm 6 mps 743 mmHg 66%
    17:00 -8°C° 0 mm 5 mps 743 mmHg 71%
    18:00 -9°C° 0 mm 4 mps 744 mmHg 76%
    19:00 -9°C° 0.1 mm 4 mps 744 mmHg 73%
    20:00 -9°C° 0.1 mm 4 mps 745 mmHg 71%
    21:00 -10°C° 0.1 mm 5 mps 745 mmHg 68%
    22:00 -9°C° 0 mm 4 mps 745 mmHg 69%
    23:00 -9°C° 0 mm 4 mps 746 mmHg 71%

    24 January, Friday

    Time Temperature Precipitation Wind Pressure Humidity
    00:00 -9°C° 0 mm 3 mps 746 mmHg 72%
    01:00 -9°C° 0 mm 3 mps 746 mmHg 74%
    02:00 -9°C° 0 mm 3 mps 746 mmHg 75%
    03:00 -9°C° 0 mm 3 mps 747 mmHg 76%
    04:00 -9°C° 0 mm 3 mps 746 mmHg 78%
    05:00 -9°C° 0 mm 3 mps 746 mmHg 80%
    06:00 -9°C° 0 mm 3 mps 746 mmHg 82%
    07:00 -10°C° 0 mm 4 mps 745 mmHg 83%
    08:00 -9°C° 0 mm 4 mps 744 mmHg 84%
    09:00 -10°C° 0 mm 5 mps 744 mmHg 85%
    10:00 -9°C° 0.2 mm 6 mps 743 mmHg 88%
    11:00 -8°C° 0.2 mm 6 mps 742 mmHg 90%
    12:00 -8°C° 0.2 mm 7 mps 741 mmHg 93%
    13:00 -7°C° 0.4 mm 7 mps 740 mmHg 93%
    14:00 -7°C° 0.4 mm 7 mps 739 mmHg 93%
    15:00 -6°C° 0.4 mm 7 mps 738 mmHg 94%
    16:00 -5°C° 0.3 mm 6 mps 737 mmHg 95%
    17:00 -4°C° 0.3 mm 6 mps 737 mmHg 95%
    18:00 -4°C° 0.3 mm 5 mps 737 mmHg 96%
    19:00 -2°C° 0.2 mm 5 mps 737 mmHg 96%
    20:00 -2°C° 0.2 mm 5 mps 737 mmHg 97%
    21:00 -1°C° 0.2 mm 5 mps 736 mmHg 97%
    22:00 -2°C° 0.1 mm 5 mps 737 mmHg 95%
    23:00 -2°C° 0.1 mm 5 mps 737 mmHg 93%
    Show more